Edinburg, TX

12:33 AM CDT on October 22, 2017 (GMT -0500)
Edinburg

Weather History for KEBG - February, 2013

Change the Weather History Date:

Tuesday, February 5, 2013

  Actual Average (KMFE) Record (KMFE)
Temperature  
Mean Temperature 76 °F -  
Max Temperature 91 °F 71 °F 96 °F (2008)
Min Temperature 60 °F 52 °F 27 °F (2011)
Cooling Degree Days 10    
Growing Degree Days 26 (Base 50)    
Moisture  
Dew Point 60 °F    
Average Humidity 66    
Maximum Humidity 93    
Minimum Humidity 20    
Precipitation  
Precipitation 0.00 in - - ()
Sea Level Pressure  
Sea Level Pressure 29.89 in    
Wind  
Wind Speed 5 mph (SSE)    
Max Wind Speed 18 mph    
Max Gust Speed 24 mph    
Visibility 6 miles    
Events Fog    
Averages and records for this station are not official NWS values.
T = Trace of Precipitation, MM = Missing Value Source: NWS Daily Summary

Daily Weather History Graph

Daily Weather History Graph

Search for Another Location

Airport or City:

Trip Planner

Search our weather history database for the weather conditions in past years. The results will help you decide how hot, cold, wet, or windy it might be!

Date:

Astronomy

Feb. 05, 2013 Rise Set
Actual Time 7:14 AM CST 6:18 PM CST
Civil Twilight 6:50 AM CST 6:42 PM CST
Nautical Twilight 6:23 AM CST 7:10 PM CST
Astronomical Twilight 5:56 AM CST 7:37 PM CST
Moon 2:48 AM CST (2/5) 1:47 PM CST (2/5)
Length of Visible Light 11h 51m
Length of Day
11h 03m
Waning Crescent, 26% of the Moon is Illuminated
Feb 5
Waning Crescent
Feb 10
New
Feb 17
First Quarter
Feb 25
Full
Mar 4
Last Quarter

Hourly Weather History & Observations

Time (CST) Temp. Heat Index Dew Point Humidity Pressure Visibility Wind Dir Wind Speed Gust Speed Precip Events Conditions
12:15 AM 68.7 °F - 63.0 °F 82% 29.87 in 7.0 mi SSE 4.6 mph - N/A   Clear
12:35 AM 68.0 °F - 63.0 °F 84% 29.87 in 7.0 mi South 3.5 mph - N/A   Clear
12:55 AM 66.9 °F - 62.4 °F 85% 29.86 in 7.0 mi SE 5.8 mph - N/A   Clear
1:35 AM 66.9 °F - 62.6 °F 86% 29.86 in 7.0 mi SSE 5.8 mph - N/A   Clear
1:55 AM 66.2 °F - 62.6 °F 88% 29.86 in 7.0 mi SSE 4.6 mph - N/A   Clear
2:15 AM 66.0 °F - 62.4 °F 88% 29.86 in 5.0 mi South 4.6 mph - N/A   Clear
2:35 AM 67.1 °F - 63.5 °F 88% 29.86 in 7.0 mi South 5.8 mph - N/A   Clear
2:55 AM 67.1 °F - 63.5 °F 88% 29.86 in 5.0 mi South 3.5 mph - N/A   Clear
3:15 AM 67.1 °F - 63.5 °F 88% 29.86 in 7.0 mi South 5.8 mph - N/A   Clear
3:35 AM 67.1 °F - 63.5 °F 88% 29.87 in 7.0 mi South 4.6 mph - N/A   Clear
3:55 AM 66.7 °F - 63.1 °F 88% 29.87 in 7.0 mi SSW 4.6 mph - N/A   Clear
4:15 AM 66.2 °F - 62.8 °F 89% 29.87 in 7.0 mi South 4.6 mph - N/A   Clear
4:35 AM 66.2 °F - 62.8 °F 89% 29.87 in 5.0 mi South 3.5 mph - N/A   Clear
4:55 AM 66.2 °F - 63.0 °F 89% 29.87 in 5.0 mi Calm Calm - N/A   Clear
5:15 AM 65.5 °F - 62.4 °F 90% 29.87 in 5.0 mi Calm Calm - N/A   Clear
5:35 AM 65.3 °F - 62.6 °F 91% 29.88 in 4.0 mi South 3.5 mph - N/A   Clear
5:55 AM 64.8 °F - 62.1 °F 91% 29.88 in 2.0 mi SSE 3.5 mph - N/A   Clear
6:15 AM 64.8 °F - 62.2 °F 92% 29.89 in 2.5 mi Calm Calm - N/A   Clear
6:35 AM 64.2 °F - 61.7 °F 91% 29.90 in 0.5 mi Calm Calm - N/A Fog Fog
6:55 AM 62.8 °F - 60.4 °F 92% 29.91 in 0.8 mi Calm Calm - N/A   Mist
7:15 AM 61.3 °F - 59.0 °F 92% 29.91 in 1.5 mi Calm Calm - N/A   Mist
7:35 AM 61.0 °F - 58.6 °F 92% 29.92 in 0.2 mi Calm Calm - N/A Fog Fog
7:55 AM 60.3 °F - 58.1 °F 93% 29.93 in 0.2 mi Calm Calm - N/A Fog Fog
8:15 AM 61.3 °F - 59.4 °F 93% 29.93 in 0.2 mi Calm Calm - N/A Fog Fog
8:35 AM 63.7 °F - 61.5 °F 93% 29.94 in 0.2 mi North 3.5 mph - N/A Fog Fog
8:55 AM 65.3 °F - 63.1 °F 93% 29.95 in 0.2 mi Calm Calm - N/A Fog Fog
9:15 AM 67.1 °F - 64.6 °F 92% 29.96 in 1.8 mi Calm Calm - N/A   Overcast
9:35 AM 69.3 °F - 66.9 °F 92% 29.96 in 5.0 mi South 5.8 mph - N/A   Scattered Clouds
9:55 AM 72.9 °F - 65.3 °F 77% 29.97 in 7.0 mi South 5.8 mph - N/A   Clear
10:15 AM 75.2 °F - 64.6 °F 69% 29.96 in 5.0 mi South 8.1 mph - N/A   Haze
10:35 AM 77.0 °F - 63.9 °F 64% 29.96 in 5.0 mi South 10.4 mph - N/A   Haze
10:55 AM 77.9 °F - 63.7 °F 61% 29.96 in 7.0 mi South 8.1 mph - N/A   Clear
11:15 AM 79.9 °F - 63.5 °F 57% 29.95 in 7.0 mi SSW 6.9 mph - N/A   Clear
11:35 AM 81.5 °F 82.5 °F 62.4 °F 52% 29.95 in 7.0 mi SSW 8.1 mph - N/A   Clear
11:55 AM 82.8 °F 83.4 °F 61.9 °F 49% 29.94 in 7.0 mi South 4.6 mph - N/A   Clear
12:15 PM 84.6 °F 84.6 °F 60.6 °F 44% 29.93 in 7.0 mi SE 3.5 mph - N/A   Clear
12:35 PM 86.0 °F 85.0 °F 57.6 °F 38% 29.91 in 7.0 mi SE 4.6 mph - N/A   Clear
12:55 PM 86.9 °F 85.3 °F 55.4 °F 34% 29.90 in 7.0 mi SE 4.6 mph - N/A   Clear
1:15 PM 87.6 °F 85.9 °F 55.2 °F 33% 29.89 in 7.0 mi SSE 5.8 mph - N/A   Clear
1:35 PM 88.9 °F - 52.9 °F 29% 29.88 in 7.0 mi South 3.5 mph - N/A   Clear
1:55 PM 89.4 °F - 49.8 °F 26% 29.87 in 7.0 mi ESE 6.9 mph - N/A   Clear
2:15 PM 89.6 °F - 50.7 °F 26% 29.86 in 7.0 mi SSE 6.9 mph - N/A   Clear
2:35 PM 90.9 °F - 47.3 °F 22% 29.85 in 7.0 mi South 6.9 mph 10.4 mph N/A   Clear
2:55 PM 91.4 °F - 44.4 °F 20% 29.84 in 10.0 mi SE 4.6 mph - N/A   Clear
3:15 PM 90.9 °F - 49.3 °F 24% 29.84 in 7.0 mi SSE 9.2 mph - N/A   Clear
3:35 PM 91.0 °F - 47.1 °F 22% 29.83 in 7.0 mi SSE 8.1 mph - N/A   Clear
3:55 PM 90.9 °F - 44.2 °F 20% 29.82 in 7.0 mi SE 6.9 mph - N/A   Clear
4:15 PM 90.5 °F - 46.9 °F 22% 29.82 in 7.0 mi SSE 9.2 mph - N/A   Clear
4:35 PM 90.7 °F - 46.9 °F 22% 29.83 in 7.0 mi SSE 11.5 mph - N/A   Clear
4:55 PM 90.1 °F - 48.9 °F 24% 29.82 in 7.0 mi ESE 9.2 mph - N/A   Clear
5:15 PM 89.6 °F - 51.1 °F 27% 29.82 in 7.0 mi SSE 9.2 mph - N/A   Clear
5:35 PM 86.7 °F 86.8 °F 61.2 °F 42% 29.82 in 7.0 mi East 18.4 mph - N/A   Clear
5:55 PM 84.7 °F 85.2 °F 61.9 °F 46% 29.82 in 7.0 mi East 17.3 mph 24.2 mph N/A   Clear
6:15 PM 83.5 °F 84.1 °F 61.9 °F 48% 29.84 in 4.0 mi ESE 10.4 mph 13.8 mph N/A   Haze
6:35 PM 82.9 °F 83.0 °F 59.5 °F 45% 29.85 in 10.0 mi SE 11.5 mph - N/A   Clear
6:55 PM 81.3 °F 81.8 °F 60.1 °F 48% 29.85 in 7.0 mi SE 13.8 mph - N/A   Clear
7:15 PM 80.2 °F 81.2 °F 61.2 °F 52% 29.87 in 7.0 mi SE 8.1 mph - N/A   Clear
7:55 PM 77.0 °F - 61.7 °F 59% 29.88 in 7.0 mi SE 9.2 mph - N/A   Clear
8:35 PM 75.2 °F - 63.7 °F 67% 29.90 in 7.0 mi SE 10.4 mph - N/A   Clear
8:55 PM 74.5 °F - 64.6 °F 71% 29.90 in 7.0 mi ESE 10.4 mph - N/A   Clear
9:15 PM 74.3 °F - 65.5 °F 74% 29.90 in 5.0 mi SE 11.5 mph - N/A   Haze
9:35 PM 73.4 °F - 66.2 °F 78% 29.90 in 7.0 mi SE 11.5 mph - N/A   Clear
9:55 PM 72.5 °F - 66.2 °F 81% 29.90 in 5.0 mi SE 11.5 mph - N/A   Haze
10:15 PM 72.7 °F - 67.1 °F 83% 29.90 in 7.0 mi SE 12.7 mph - N/A   Clear
10:35 PM 72.5 °F - 67.5 °F 84% 29.90 in 5.0 mi ESE 11.5 mph - N/A   Haze
10:55 PM 72.5 °F - 67.3 °F 84% 29.89 in 7.0 mi SE 13.8 mph - N/A   Scattered Clouds
11:15 PM 73.0 °F - 68.0 °F 84% 29.90 in 7.0 mi SE 11.5 mph - N/A   Scattered Clouds
11:35 PM 73.4 °F - 68.0 °F 83% 29.90 in 5.0 mi SE 12.7 mph - N/A   Haze
11:55 PM 73.4 °F - 68.0 °F 83% 29.92 in 5.0 mi SE 5.8 mph - N/A   Haze